| time (UTC) | temp C | wind direction | speed KPH | gust KPH | rain 1hr cm | rain 24hr cm | rain mn cm | humidity % | barometer mb |
| 20260504231531 | 11 | 142 | 1.6 | 12.9 | 0.00 | 0.05 | 0.05 | 73 | 1005.8 |
| 20260504230030 | 11 | 171 | 1.6 | 8.0 | 0.00 | 0.05 | 0.05 | 70 | 1005.7 |
| 20260504224529 | 12 | 182 | 0.0 | 6.4 | 0.00 | 0.05 | 0.05 | 68 | 1005.4 |
| 20260504223029 | 13 | 182 | 0.0 | 8.0 | 0.00 | 0.05 | 0.05 | 65 | 1005.1 |
| 20260504221528 | 15 | 179 | 3.2 | 8.0 | 0.00 | 0.05 | 0.05 | 61 | 1005.3 |
| 20260504220028 | 16 | 281 | 4.8 | 22.5 | 0.00 | 0.05 | 0.05 | 56 | 1005.1 |
| 20260504214528 | 16 | 218 | 3.2 | 9.7 | 0.00 | 0.05 | 0.05 | 56 | 1004.9 |
| 20260504213026 | 16 | 250 | 1.6 | 12.9 | 0.00 | 0.05 | 0.05 | 59 | 1004.9 |
| 20260504211525 | 16 | 251 | 3.2 | 12.9 | 0.00 | 0.05 | 0.05 | 59 | 1005.0 |
| 20260504210024 | 16 | 217 | 1.6 | 16.1 | 0.00 | 0.05 | 0.05 | 60 | 1004.9 |
| 20260504204525 | 16 | 272 | 8.0 | 17.7 | 0.00 | 0.05 | 0.05 | 57 | 1004.8 |
| 20260504203027 | 16 | 10 | 4.8 | 19.3 | 0.00 | 0.05 | 0.05 | 59 | 1004.8 |
| 20260504201519 | 15 | 265 | 4.8 | 14.5 | 0.00 | 0.05 | 0.05 | 59 | 1004.8 |
| 20260504200019 | 15 | 211 | 3.2 | 12.9 | 0.00 | 0.05 | 0.05 | 63 | 1004.9 |
| 20260504194517 | 15 | 231 | 1.6 | 16.1 | 0.00 | 0.08 | 0.05 | 66 | 1004.8 |
| 20260504193013 | 14 | 161 | 3.2 | 11.3 | 0.00 | 0.08 | 0.05 | 71 | 1004.9 |
| 20260504191509 | 12 | 229 | 3.2 | 11.3 | 0.03 | 0.08 | 0.05 | 77 | 1005.2 |
| 20260504190009 | 11 | 248 | 6.4 | 14.5 | 0.05 | 0.08 | 0.05 | 76 | 1005.4 |
| 20260504184508 | 11 | 194 | 1.6 | 11.3 | 0.05 | 0.15 | 0.05 | 78 | 1005.7 |
| 20260504183007 | 11 | 257 | 4.8 | 14.5 | 0.05 | 0.15 | 0.05 | 76 | 1005.9 |
| 20260504181507 | 12 | 213 | 3.2 | 12.9 | 0.03 | 0.13 | 0.03 | 71 | 1005.9 |
| 20260504180009 | 12 | 242 | 6.4 | 14.5 | 0.00 | 0.28 | 0.00 | 67 | 1005.7 |
| 20260504174506 | 11 | 257 | 1.6 | 9.7 | 0.00 | 0.28 | 0.00 | 72 | 1005.5 |
| 20260504173005 | 9 | 203 | 0.0 | 14.5 | 0.00 | 0.28 | 0.00 | 77 | 1005.5 |
| 20260504171505 | 10 | 153 | 8.0 | 16.1 | 0.00 | 0.28 | 0.00 | 73 | 1005.2 |
| 20260504081548 | 0 | 300 | 0.0 | 4.8 | 0.00 | 2.11 | 0.00 | 91 | 1006.6 |
| 20260504050015 | 1 | 292 | 0.0 | 11.3 | 0.00 | 2.39 | 0.00 | 84 | 1005.2 |
| 20260504044511 | 1 | 304 | 0.0 | 8.0 | 0.00 | 2.39 | 0.00 | 82 | 1005.1 |
| 20260504043007 | 2 | 306 | 0.0 | 11.3 | 0.00 | 2.39 | 0.00 | 79 | 1005.0 |
| 20260504041504 | 2 | 315 | 0.0 | 12.9 | 0.00 | 2.39 | 0.00 | 78 | 1004.9 |
| 20260504040001 | 3 | 266 | 3.2 | 14.5 | 0.00 | 2.39 | 2.39 | 76 | 1004.7 |
| 20260504034600 | 3 | 337 | 4.8 | 12.9 | 0.00 | 2.39 | 2.39 | 74 | 1004.5 |
| 20260504033059 | 3 | 318 | 4.8 | 12.9 | 0.00 | 2.39 | 2.39 | 74 | 1004.3 |
| 20260504031558 | 3 | 318 | 1.6 | 11.3 | 0.00 | 2.39 | 2.39 | 77 | 1004.2 |
| 20260504030056 | 3 | 279 | 1.6 | 12.9 | 0.00 | 2.39 | 2.39 | 78 | 1004.0 |
| 20260504024614 | 3 | 355 | 1.6 | 16.1 | 0.00 | 2.39 | 2.39 | 78 | 1003.8 |
| 20260504023055 | 3 | 273 | 1.6 | 12.9 | 0.00 | 2.39 | 2.39 | 81 | 1003.9 |
| 20260504021552 | 3 | 318 | 3.2 | 16.1 | 0.00 | 2.39 | 2.39 | 81 | 1003.7 |
| 20260504020049 | 3 | 296 | 1.6 | 9.7 | 0.00 | 2.39 | 2.39 | 81 | 1003.8 |
| 20260504014548 | 5 | 319 | 0.0 | 12.9 | 0.00 | 2.39 | 2.39 | 79 | 1003.5 |
| 20260504013048 | 5 | 312 | 3.2 | 20.9 | 0.00 | 2.39 | 2.39 | 83 | 1003.3 |
| 20260504011546 | 4 | 301 | 1.6 | 11.3 | 0.00 | 2.39 | 2.39 | 90 | 1003.1 |
| 20260504010043 | 4 | 315 | 0.0 | 6.4 | 0.00 | 2.39 | 2.39 | 89 | 1003.0 |
| 20260504004547 | 5 | 316 | 0.0 | 0.0 | 0.00 | 2.39 | 2.39 | 89 | 1002.7 |
| 20260504003046 | 5 | 316 | 0.0 | 0.0 | 0.00 | 2.39 | 2.39 | 89 | 1002.4 |
| 20260504001545 | 5 | 313 | 1.6 | 6.4 | 0.00 | 2.39 | 2.39 | 89 | 1002.2 |
| 20260504000111 | 6 | 311 | 1.6 | 8.0 | 0.00 | 2.39 | 2.39 | 88 | 1002.0 |
| 20260503234550 | 6 | 323 | 0.0 | 6.4 | 0.00 | 2.39 | 2.39 | 87 | 1001.9 |
| 20260503233041 | 6 | 326 | 1.6 | 11.3 | 0.00 | 2.39 | 2.39 | 87 | 1001.6 |